User: anonymous   Login
Location: Unspecified
(0.0000°N, 0.0000°E)
Time: 14:19:48
(UTC+01:00)
Language:

Cosmos 2219 - Orbit

View from above orbital plane
View from above orbital plane
View from above satellite
View from above satellite

Ground track
Ground track

The orbit data is extracted from the following two-line orbital elements,

1 22219U 92076A   17327.13069411  .00000075  00000-0  64677-4 0  9991
2 22219  71.0591 225.7072 0017513 152.1197 208.0867 14.13613744290678
Epoch (UTC): 23 November 2017 03:08:11
Eccentricity: 0.0017513
inclination: 71.0591°
perigee height: 834 km
apogee height: 859 km
right ascension of ascending node: 225.7072°
argument of perigee: 152.1197°
revolutions per day: 14.13613744
mean anomaly at epoch: 208.0867°
orbit number at epoch: 29067

The dashed part of the orbit path shows where the satellite is in the earth's shadow,  

DLR